Total_Precipitation_Accumulation
0.01 0.02 0.03 0.07 0.21 0.41 0.50 0.41 0.37 0.47 0.51 0.45 0.48 0.49 0.53 0.67 1.17 2.10 1.26 0.67 0.49 0.46 0.48 0.39 0.45 0.51 0.58 0.66 0.73 0.80 0.79 0.80 0.77 0.76 0.81 0.95 1.04 1.17 1.15 1.20 1.68 1.88 2.03 2.08 2.16 2.34 2.43 2.37 2.53
0.03 0.03 0.05 0.11 0.28 0.55 0.56 0.42 0.45 0.47 0.53 0.52 0.54 0.54 0.55 0.60 0.54 0.59 0.65 0.60 0.45 0.41 0.44 0.36 0.44 0.56 0.60 0.65 0.71 0.83 0.80 0.79 0.77 0.75 0.81 0.92 1.02 1.17 1.29 1.42 1.68 2.03 2.22 2.35 2.55 2.73 2.72 2.53 2.54
0.04 0.04 0.09 0.18 0.24 0.41 0.53 0.49 0.54 0.50 0.48 0.60 0.71 0.80 0.81 0.75 0.67 0.63 0.58 0.46 0.39 0.32 0.34 0.44 0.53 0.60 0.66 0.68 0.71 0.77 0.83 0.87 0.87 0.89 0.88 0.95 1.03 1.06 1.13 1.37 1.56 1.77 1.96 2.14 2.37 2.53 2.71 2.54 2.49
0.04 0.06 0.11 0.16 0.21 0.27 0.43 0.55 0.57 0.63 0.61 0.54 0.64 1.01 0.93 0.71 0.70 0.72 0.54 0.45 0.43 0.37 0.32 0.43 0.58 0.62 0.69 0.75 0.74 0.73 0.78 0.90 1.03 1.12 1.08 1.08 1.13 1.16 1.21 1.41 1.57 1.70 1.71 1.78 2.02 2.34 2.64 2.68 2.54
0.04 0.09 0.18 0.22 0.21 0.25 0.36 0.51 0.55 0.60 0.69 0.63 0.71 1.10 1.06 0.87 0.83 0.94 0.83 0.63 0.60 0.58 0.54 0.51 0.60 0.64 0.70 0.78 0.80 0.84 0.84 0.95 1.11 1.21 1.24 1.25 1.22 1.18 1.33 1.66 1.92 1.92 1.71 1.73 1.77 1.93 2.18 2.59 2.68
0.05 0.09 0.24 0.23 0.19 0.30 0.41 0.53 0.54 0.58 0.66 0.77 0.93 1.31 1.57 1.41 1.26 1.35 1.33 0.96 0.81 0.74 0.70 0.71 0.70 0.66 0.74 0.85 0.84 0.90 0.97 1.04 1.18 1.28 1.40 1.35 1.26 1.23 1.43 1.92 2.11 2.06 1.88 1.88 1.73 1.74 1.96 2.34 2.63
0.05 0.12 0.22 0.17 0.20 0.34 0.45 0.57 0.59 0.68 0.89 0.99 1.13 1.64 1.83 1.74 1.66 1.50 1.60 1.35 1.01 0.96 0.95 0.96 0.84 0.81 0.89 1.01 0.99 0.99 1.03 1.10 1.23 1.45 1.58 1.53 1.43 1.45 1.56 1.83 2.02 2.05 2.01 2.05 1.99 1.92 2.03 2.21 2.50
0.06 0.14 0.17 0.18 0.22 0.37 0.52 0.62 0.65 0.74 1.06 1.17 1.22 1.73 1.99 1.88 1.64 1.54 1.62 1.66 1.42 1.34 1.32 1.26 1.27 1.25 1.15 1.19 1.33 1.27 1.24 1.24 1.26 1.40 1.63 1.67 1.60 1.59 1.68 1.67 1.87 2.04 2.16 2.26 2.37 2.49 2.51 2.48 2.47
0.05 0.15 0.16 0.13 0.18 0.37 0.53 0.67 0.74 0.77 0.98 1.18 1.11 1.29 1.72 1.55 1.73 1.96 1.87 1.94 1.90 1.79 1.72 1.51 1.57 1.60 1.46 1.40 1.37 1.54 1.52 1.46 1.42 1.50 1.69 1.79 1.89 1.91 1.94 1.90 2.20 2.31 2.55 2.75 2.88 2.93 2.76 2.66 2.54
0.04 0.13 0.13 0.10 0.14 0.31 0.49 0.67 0.81 0.91 0.98 1.18 1.22 1.20 1.46 1.64 1.67 1.96 2.31 2.15 2.15 1.99 1.89 1.81 1.66 1.60 1.58 1.49 1.60 1.80 1.74 1.75 1.64 1.88 1.90 2.06 2.50 2.69 2.40 2.70 2.86 2.94 3.08 3.15 3.09 3.08 2.87 2.54 2.21
0.05 0.10 0.11 0.12 0.18 0.31 0.49 0.64 0.67 0.83 1.05 1.16 1.33 1.39 1.57 1.81 2.02 2.06 2.48 2.49 2.42 2.32 2.12 2.16 2.01 1.86 2.04 2.16 2.05 2.06 2.14 2.28 2.16 2.33 2.40 2.60 2.86 2.94 2.98 3.17 3.18 3.31 3.42 3.32 3.30 3.18 2.76 2.42 2.26
0.05 0.07 0.10 0.16 0.20 0.29 0.42 0.53 0.70 0.91 1.32 1.36 1.65 1.97 2.02 1.95 2.26 2.32 2.65 2.68 2.79 2.95 2.76 2.63 2.62 2.49 2.60 2.86 2.66 2.38 2.29 2.40 2.48 2.75 2.69 3.03 3.22 3.27 3.30 3.40 3.41 3.46 3.51 3.51 3.30 3.22 3.02 2.77 2.51
0.06 0.08 0.09 0.15 0.25 0.34 0.44 0.57 0.77 1.05 1.24 1.33 1.74 2.16 2.27 2.12 2.07 2.33 3.00 2.84 2.87 3.15 3.30 3.07 3.03 2.96 3.12 3.33 3.20 2.95 2.90 2.67 2.66 3.04 3.13 3.27 3.43 3.45 3.59 3.59 3.63 3.42 3.38 3.33 3.24 3.11 3.21 3.08 2.83
0.08 0.09 0.12 0.13 0.21 0.32 0.47 0.58 0.76 0.98 0.92 1.08 1.41 1.76 1.95 2.12 2.15 2.34 2.72 2.85 2.81 3.10 3.40 3.52 3.51 3.41 3.21 3.32 3.39 3.17 2.92 3.03 2.93 2.98 3.16 3.22 3.45 3.75 3.85 3.83 3.84 3.74 3.59 3.64 3.47 3.27 3.48 3.40 3.29
0.06 0.10 0.15 0.16 0.21 0.33 0.43 0.66 0.88 1.11 1.06 1.16 1.37 1.53 1.84 2.12 2.47 2.68 2.80 2.83 2.84 2.98 3.21 3.40 3.50 3.66 3.46 3.45 3.49 3.32 3.15 3.17 3.26 3.33 3.50 3.41 3.41 3.78 3.99 4.14 4.05 4.05 3.93 3.91 3.86 3.84 3.95 3.65 3.48
0.09 0.13 0.24 0.27 0.24 0.27 0.46 0.89 1.11 1.15 1.22 1.29 1.36 1.52 1.76 2.14 2.45 2.58 2.52 2.57 2.55 2.61 2.92 3.24 3.37 3.56 3.75 3.81 3.95 3.69 3.72 3.79 3.79 3.63 3.59 3.51 3.53 3.77 4.17 4.29 4.27 4.38 4.28 4.38 4.47 4.39 4.30 4.22 3.95
0.14 0.18 0.26 0.36 0.30 0.28 0.49 0.94 1.17 1.12 1.28 1.38 1.39 1.45 1.62 1.92 2.22 2.35 2.38 2.39 2.38 2.38 2.88 3.24 3.58 3.93 4.15 4.34 4.58 4.53 4.63 4.53 4.34 4.26 4.10 4.13 4.26 4.29 4.53 4.65 4.74 4.79 4.84 4.92 4.69 4.89 4.70 4.65 4.49
0.22 0.23 0.27 0.29 0.29 0.32 0.50 0.80 1.00 1.12 1.29 1.46 1.47 1.47 1.52 1.80 2.13 2.23 2.32 2.46 2.40 2.52 2.95 3.36 3.69 4.30 4.80 4.88 5.07 5.19 5.43 5.37 5.22 5.26 5.14 4.86 4.96 5.05 5.24 5.15 5.25 5.30 5.42 5.33 5.31 5.44 5.22 4.91 4.89
0.20 0.26 0.33 0.29 0.27 0.36 0.47 0.69 0.95 1.11 1.33 1.56 1.53 1.54 1.68 1.82 2.12 2.28 2.38 2.55 2.86 3.13 3.34 3.61 3.90 4.28 4.56 5.00 5.38 5.58 5.77 5.97 6.05 6.00 5.97 5.94 5.88 6.03 6.16 5.85 5.97 5.89 5.79 5.59 5.58 5.52 5.30 5.02 5.02
0.15 0.22 0.31 0.34 0.33 0.35 0.51 0.73 0.98 1.11 1.27 1.55 1.65 1.69 1.72 1.85 2.05 2.37 2.70 3.10 3.35 3.58 3.70 3.96 4.30 4.60 4.78 5.18 5.73 6.25 6.49 6.58 6.59 6.62 6.77 6.76 6.74 6.92 6.98 7.01 6.77 6.60 6.39 5.92 5.58 5.47 5.24 4.87 4.99
0.13 0.18 0.22 0.30 0.37 0.43 0.64 1.08 1.32 1.37 1.52 1.68 1.71 1.83 1.84 1.92 2.17 2.48 2.96 3.30 3.43 3.57 3.70 3.91 4.46 4.95 5.39 5.83 6.41 6.92 7.28 7.31 7.16 6.85 6.96 7.09 6.88 6.93 7.23 7.37 7.13 6.79 6.24 5.71 5.62 5.60 5.43 5.19 5.06
0.14 0.15 0.18 0.25 0.40 0.57 0.65 1.37 1.77 1.89 1.91 1.83 1.85 1.93 1.89 1.90 2.14 2.49 2.80 3.11 3.30 3.40 3.71 4.02 4.48 5.14 5.67 5.95 6.58 7.28 7.53 7.79 7.84 7.64 7.35 7.16 6.88 6.70 6.67 6.66 6.35 5.99 5.61 5.35 5.23 5.36 5.28 5.27 5.05
0.12 0.13 0.19 0.24 0.33 0.52 0.58 1.11 1.90 2.10 2.27 2.04 1.98 1.99 1.81 1.77 1.93 2.31 2.59 2.92 3.32 3.41 3.53 3.78 4.35 4.97 5.71 6.35 6.86 7.49 7.95 8.23 8.16 7.73 7.26 6.73 6.38 5.91 5.48 5.23 5.11 5.09 4.92 4.73 4.64 4.76 4.72 4.47 4.37
0.12 0.17 0.27 0.33 0.44 0.74 0.71 1.07 1.99 2.29 2.48 2.55 2.23 1.99 1.79 1.75 1.82 2.02 2.33 2.64 2.97 3.02 3.27 3.56 4.04 4.77 5.48 6.06 6.65 7.20 7.61 7.75 7.44 6.90 6.36 5.98 5.61 5.07 4.53 4.33 4.27 4.22 4.06 3.89 3.80 3.84 3.89 3.92 3.98
0.15 0.32 0.67 0.88 1.00 0.97 0.75 1.11 1.95 2.15 2.00 2.11 2.17 2.19 1.96 1.75 1.84 2.09 2.34 2.65 2.80 2.86 3.12 3.50 4.04 4.68 5.08 5.54 6.05 6.39 6.60 6.73 6.70 6.40 5.94 5.56 5.04 4.56 4.11 3.72 3.61 3.37 3.22 3.19 3.32 3.34 3.29 3.42 3.55
0.16 0.33 0.87 1.16 1.15 1.14 1.12 1.61 2.28 2.12 1.78 1.78 1.92 2.07 1.88 1.80 1.99 2.35 2.46 2.61 2.81 2.87 3.11 3.49 3.95 4.38 4.60 4.79 5.18 5.49 5.61 5.63 5.49 5.34 4.94 4.64 4.27 3.95 3.71 3.31 2.97 2.75 2.62 2.57 2.83 2.94 2.95 3.05 3.19
0.22 0.29 0.46 0.69 0.77 1.16 1.66 2.19 2.80 2.63 2.06 1.86 1.91 1.95 1.99 1.95 2.06 2.35 2.52 2.63 2.74 2.79 2.99 3.20 3.51 3.73 3.98 4.13 4.34 4.52 4.54 4.41 4.25 4.07 3.81 3.60 3.41 3.07 2.95 2.74 2.58 2.47 2.43 2.47 2.58 2.59 2.71 2.91 2.98
0.22 0.32 0.47 0.77 1.15 1.54 1.88 2.64 3.49 3.32 2.64 2.18 2.06 2.01 2.02 2.00 2.05 2.26 2.38 2.52 2.60 2.58 2.68 2.79 3.04 3.21 3.44 3.58 3.57 3.46 3.50 3.42 3.25 3.03 2.88 2.69 2.52 2.42 2.41 2.34 2.36 2.33 2.28 2.34 2.44 2.34 2.40 2.57 2.58
0.29 0.38 0.57 0.76 0.88 1.49 2.19 3.13 3.31 3.35 3.03 2.62 2.21 1.99 1.95 1.95 1.97 2.09 2.26 2.29 2.29 2.28 2.34 2.48 2.66 2.86 3.02 3.05 3.09 3.02 2.91 2.72 2.59 2.42 2.28 2.21 2.14 2.12 2.10 2.13 2.16 2.19 2.21 2.26 2.23 2.05 2.09 2.16 2.34
0.29 0.41 0.62 1.00 1.05 1.24 1.93 3.16 3.15 3.38 3.27 2.93 2.55 2.24 2.10 2.03 1.91 1.86 1.93 1.98 2.02 2.11 2.22 2.35 2.39 2.48 2.56 2.67 2.72 2.73 2.66 2.49 2.29 2.14 2.05 2.08 2.07 2.04 2.03 2.03 1.99 2.01 2.16 2.27 2.19 2.02 1.95 2.08 2.24